[[{"header":{"parameterUnit":"m.s-1","parameterCategory":1,"la1":30.2991,"la2":30.254,"lo1":-89.0895,"lo2":-89.0444,"dy":0.0017,"dx":0.0017,"nx":28,"ny":28,"refTime":"2025-01-21T09:00:00:Z","depth":0,"parameterNumber":2,"parameterNumberName":"U-component_of_WINDS"},"data":[0,0,0,0,0,0,0,0,0,0,0,0,0,0,0,0,0,0,0,0,0,0,0,0,0,0,0,0,0,0,0,0,0,0,0,0,0,0,0,0,0,0,0,0,0,0,0,0,0,0,0,0,0,0,0,0,0,0,-1.2287,-1.2287,0,-1.2297,-1.2297,-1.2297,-1.2273,-1.2272,-1.2271,-1.227,-1.2284,-1.2285,-1.2286,0,0,0,0,0,0,0,0,0,0,0,0,0,-1.2247,-1.2248,-1.2287,-1.2287,-1.2287,-1.2297,-1.2297,-1.2297,-1.2273,-1.2272,-1.2271,-1.227,-1.2283,-1.2284,-1.2286,0,0,0,0,0,0,0,0,0,0,0,0,0,-1.2262,-1.2248,-1.2286,-1.2276,-1.2275,-1.2297,-1.2297,-1.2297,-1.2273,-1.2272,-1.2271,-1.227,-1.2283,-1.2284,-1.2286,-1.232,0,0,-1.2291,-1.2292,0,0,0,0,0,0,0,0,-1.2261,-1.2263,-1.2277,-1.2277,-1.2276,-1.2282,-1.2288,-1.2305,-1.2273,-1.2274,-1.227,-1.2269,-1.2284,-1.2286,-1.229,-1.232,-1.2321,-1.2291,-1.2292,-1.2293,-1.2293,0,0,0,0,0,0,0,-1.226,-1.2263,-1.2291,-1.2277,-1.2276,-1.2271,-1.2272,-1.2291,-1.2286,-1.2274,-1.2272,-1.2273,-1.2284,-1.2289,-1.229,-1.2321,-1.2291,-1.2292,-1.2293,-1.2294,-1.238,-1.2381,0,0,0,0,0,0,-1.226,-1.2262,-1.229,-1.2291,-1.2265,-1.2273,-1.2274,-1.2281,-1.2285,-1.2285,-1.2274,-1.2272,-1.2287,-1.2289,-1.2291,-1.2331,-1.2293,-1.2294,-1.2295,-1.2378,-1.238,-1.2381,0,0,0,0,0,0,-1.2259,-1.2263,-1.229,-1.2276,-1.2279,-1.2275,-1.2284,-1.2282,-1.2287,-1.2286,-1.2285,-1.2281,-1.2286,-1.2289,-1.2313,-1.2331,-1.2295,-1.2296,-1.2377,-1.2379,-1.2381,-1.2412,0,0,0,0,0,0,-1.2258,-1.2263,-1.2275,-1.2276,-1.228,-1.2311,-1.2285,-1.2283,-1.229,-1.2287,-1.2291,-1.2291,-1.2285,-1.231,-1.2314,-1.2333,-1.2298,-1.2375,-1.2378,-1.238,-1.2409,-1.2415,-1.2419,0,0,0,0,0,-1.2257,-1.2284,-1.2276,-1.2279,-1.2295,-1.2312,-1.2314,-1.2306,-1.2292,-1.2304,-1.2303,-1.2291,-1.2328,-1.2313,-1.2317,-1.2337,-1.2374,-1.2377,-1.238,-1.2407,-1.2414,-1.2419,0,0,0,0,0,0,-1.2285,-1.2284,-1.2275,-1.2303,-1.2308,-1.2308,-1.2324,-1.2313,-1.2323,-1.232,-1.231,-1.2312,-1.2338,-1.2339,-1.2322,-1.237,-1.2349,-1.2353,-1.2368,-1.2374,-1.2379,-1.2379,-1.2299,0,0,0,0,0,-1.2295,-1.2308,-1.2306,-1.2331,-1.2334,-1.2329,-1.2336,-1.2329,-1.2334,-1.2336,-1.2337,-1.2343,-1.2356,-1.2365,-1.2377,-1.2409,-1.241,-1.2424,-1.2429,-1.2434,-1.2438,-1.2455,-1.2462,-1.2391,-1.2391,-1.2391,0,0,-1.2315,-1.2315,-1.2325,-1.2337,-1.234,-1.2355,-1.2331,-1.2347,-1.2359,-1.2339,-1.2362,-1.2363,-1.2369,-1.2397,-1.241,-1.2399,-1.2457,-1.2437,-1.2441,-1.2442,-1.2459,-1.2466,-1.2472,-1.2393,-1.2393,-1.2392,0,0,-1.2359,-1.236,-1.2382,-1.2385,-1.239,-1.2386,-1.2391,-1.2393,-1.2392,-1.2415,-1.24,-1.2414,-1.2436,-1.2441,-1.2447,-1.2493,-1.2482,-1.2497,-1.2524,-1.2541,-1.2547,-1.2552,-1.2569,-1.2575,-1.25,-1.25,-1.25,0,-1.2384,-1.2405,-1.2394,-1.2412,-1.2418,-1.24,-1.2422,-1.2426,-1.2435,-1.244,-1.2427,-1.2455,-1.2458,-1.2488,-1.2499,-1.2503,-1.251,-1.2497,-1.2547,-1.2552,-1.2556,-1.2573,-1.2579,-1.2502,-1.2502,-1.2502,-1.2502,0,-1.2435,-1.245,-1.2467,-1.2475,-1.2483,-1.2503,-1.2496,-1.2505,-1.2497,-1.2495,-1.2518,-1.2521,-1.2533,-1.2539,-1.2532,-1.2568,-1.2562,-1.2548,-1.2527,-1.2565,-1.258,-1.2586,-1.2505,-1.2504,-1.2504,-1.2503,0,0,-1.2499,-1.2501,-1.2507,-1.2511,-1.2514,-1.2526,-1.2545,-1.2556,-1.2565,-1.2571,-1.2588,-1.2607,-1.2594,-1.2601,-1.2594,-1.2609,-1.2646,-1.2594,-1.2594,-1.2604,-1.2687,-1.2698,-1.2706,-1.2638,-1.2639,-1.264,-1.2687,0,-1.2544,-1.2576,-1.2567,-1.26,-1.2614,-1.2596,-1.2613,-1.2617,-1.2615,-1.2628,-1.2626,-1.264,-1.2622,-1.2626,-1.264,-1.2639,-1.2663,-1.2635,-1.2655,-1.2656,-1.2655,-1.2713,-1.2725,-1.2769,-1.2693,-1.2694,-1.2694,0,-1.2601,-1.2609,-1.2643,-1.2644,-1.2649,-1.2665,-1.2674,-1.2686,-1.269,-1.2688,-1.2695,-1.2685,-1.2704,-1.2682,-1.2709,-1.2691,-1.2698,-1.2699,-1.27,-1.2703,-1.2678,-1.2719,-1.2783,-1.279,-1.2704,-1.2703,-1.2702,0,-1.2645,-1.2664,-1.2687,-1.2691,-1.2693,-1.2704,-1.2705,-1.2708,-1.2716,-1.2724,-1.2729,-1.274,-1.2747,-1.2756,-1.2749,-1.2733,-1.2778,-1.2755,-1.2777,-1.2778,-1.2789,-1.2789,-1.2856,-1.2791,-1.2791,-1.2791,-1.2791,0,-1.2697,-1.2719,-1.2708,-1.2722,-1.2746,-1.2735,-1.2759,-1.2759,-1.2762,-1.2776,-1.2761,-1.2775,-1.2765,-1.2779,-1.2773,-1.2797,-1.28,-1.2799,-1.2798,-1.2802,-1.2802,-1.2808,-1.2805,-1.2793,-1.2792,-1.2792,-1.2792,0,-1.2752,-1.2745,-1.2769,-1.2768,-1.2769,-1.2787,-1.2786,-1.28,-1.2796,-1.2815,-1.2819,-1.2813,-1.2828,-1.2822,-1.2838,-1.2835,-1.2866,-1.286,-1.2864,-1.2863,-1.2887,-1.2885,-1.2961,-1.2971,-1.2899,-1.2899,-1.29,0,-1.2786,-1.2802,-1.2803,-1.2811,-1.2814,-1.2827,-1.2834,-1.2824,-1.2833,-1.2839,-1.2852,-1.2865,-1.2876,-1.29,-1.2898,-1.2911,-1.2906,-1.2931,-1.2908,-1.2911,-1.2908,-1.2907,-1.2909,-1.2937,-1.2938,-1.2938,-1.2939,0,-1.2848,-1.2844,-1.2854,-1.2864,-1.2873,-1.2881,-1.2887,-1.2894,-1.2884,-1.2894,-1.2909,-1.2917,-1.2933,-1.2947,-1.2957,-1.2959,-1.2948,-1.2946,-1.2952,-1.2957,-1.2959,-1.296,-1.2879,-1.2945,-1.2944,-1.2944,-1.2944,-1.2943,-1.2894,-1.2908,-1.2911,-1.2924,-1.2927,-1.2933,-1.2946,-1.2944,-1.2955,-1.2967,-1.296,-1.2978,-1.2982,-1.2995,-1.2998,-1.3012,-1.3002,-1.3011,-1.3013,-1.3016,-1.302,-1.2956,-1.3014,-1.3014,-1.3014,-1.3014,-1.3013,0,-1.2957,-1.2957,-1.2969,-1.2978,-1.2988,-1.2975,-1.2981,-1.299,-1.3006,-1.301,-1.302,-1.3037,-1.3051,-1.3049,-1.3062,-1.3073,-1.3068,-1.3077,-1.3077,-1.3078,-1.3027,-1.3021,-1.3081,-1.3081,-1.3081,-1.3081,-1.3081,-1.3081,-1.2991,-1.3014,-1.301,-1.3034,-1.3035,-1.3051,-1.3056,-1.3062,-1.3065,-1.3085,-1.3095,-1.3094,-1.3097,-1.3109,-1.3121,-1.312,-1.3126,-1.3137,-1.3134,-1.3088,-1.3081,-1.3075,-1.3069,-1.3138,-1.3138,-1.3184,-1.3184,-1.3185]},{"header":{"parameterUnit":"m.s-1","parameterCategory":1,"la1":30.2991,"la2":30.254,"lo1":-89.0895,"lo2":-89.0444,"dy":0.0017,"dx":0.0017,"nx":28,"ny":28,"refTime":"2025-01-21T09:00:00:Z","depth":0,"parameterNumber":3,"parameterNumberName":"V-component_of_WINDS"},"data":[0,0,0,0,0,0,0,0,0,0,0,0,0,0,0,0,0,0,0,0,0,0,0,0,0,0,0,0,0,0,0,0,0,0,0,0,0,0,0,0,0,0,0,0,0,0,0,0,0,0,0,0,0,0,0,0,0,0,-3.3934,-3.3935,0,-3.3983,-3.3984,-3.3984,-3.3948,-3.3947,-3.3945,-3.3944,-3.399,-3.3993,-3.3995,0,0,0,0,0,0,0,0,0,0,0,0,0,-3.3807,-3.3809,-3.3934,-3.3935,-3.3935,-3.3983,-3.3984,-3.3984,-3.3949,-3.3947,-3.3945,-3.3943,-3.3989,-3.3992,-3.3995,0,0,0,0,0,0,0,0,0,0,0,0,0,-3.3859,-3.381,-3.3934,-3.3924,-3.3923,-3.3983,-3.3984,-3.3984,-3.3949,-3.3947,-3.3944,-3.3942,-3.3988,-3.3992,-3.3996,-3.4067,0,0,-3.4008,-3.401,0,0,0,0,0,0,0,0,-3.3856,-3.3864,-3.3924,-3.3924,-3.3924,-3.3957,-3.3955,-3.4012,-3.395,-3.3939,-3.3944,-3.3941,-3.3981,-3.3985,-3.3999,-3.407,-3.4072,-3.4008,-3.4011,-3.4013,-3.4014,0,0,0,0,0,0,0,-3.3853,-3.3862,-3.3953,-3.3925,-3.3925,-3.3915,-3.392,-3.3966,-3.3972,-3.394,-3.3937,-3.3944,-3.398,-3.3996,-3.4,-3.4072,-3.4008,-3.4012,-3.4014,-3.4016,-3.4204,-3.4207,0,0,0,0,0,0,-3.3851,-3.3859,-3.3952,-3.3955,-3.3884,-3.3919,-3.3925,-3.3949,-3.3972,-3.3973,-3.3946,-3.3942,-3.399,-3.3995,-3.4002,-3.4088,-3.4013,-3.4016,-3.4019,-3.4202,-3.4205,-3.4208,0,0,0,0,0,0,-3.3848,-3.3859,-3.395,-3.3906,-3.3917,-3.3924,-3.3951,-3.3951,-3.3967,-3.3976,-3.3977,-3.3961,-3.3988,-3.3996,-3.4052,-3.4089,-3.4018,-3.4022,-3.4199,-3.4203,-3.4206,-3.4261,0,0,0,0,0,0,-3.3844,-3.3858,-3.3887,-3.3907,-3.392,-3.4001,-3.3954,-3.3954,-3.3974,-3.397,-3.399,-3.3992,-3.3987,-3.4046,-3.4056,-3.4093,-3.4025,-3.4195,-3.42,-3.4205,-3.4256,-3.4266,-3.4275,0,0,0,0,0,-3.384,-3.3899,-3.3888,-3.39,-3.3955,-3.4003,-3.401,-3.4004,-3.3977,-3.4005,-3.4011,-3.3991,-3.4083,-3.4052,-3.4063,-3.4102,-3.4193,-3.4199,-3.4205,-3.4251,-3.4264,-3.4275,0,0,0,0,0,0,-3.3881,-3.3901,-3.389,-3.3957,-3.3979,-3.3997,-3.4032,-3.4018,-3.4046,-3.4041,-3.4031,-3.4036,-3.4095,-3.4104,-3.4069,-3.4173,-3.4134,-3.4142,-3.4165,-3.4177,-3.4187,-3.4184,-3.4028,0,0,0,0,0,-3.3898,-3.3937,-3.3952,-3.401,-3.4021,-3.4025,-3.4045,-3.4039,-3.4061,-3.4069,-3.4079,-3.41,-3.4133,-3.4155,-3.4187,-3.4256,-3.426,-3.4288,-3.4298,-3.4306,-3.4313,-3.4352,-3.4364,-3.4227,-3.4227,-3.4227,0,0,-3.3933,-3.3949,-3.3974,-3.4018,-3.4034,-3.4073,-3.4033,-3.4075,-3.4104,-3.4075,-3.4129,-3.4137,-3.4159,-3.4223,-3.4251,-3.4232,-3.4352,-3.4313,-3.4319,-3.4323,-3.4359,-3.4372,-3.4384,-3.4231,-3.423,-3.4229,0,0,-3.4018,-3.4034,-3.4085,-3.4102,-3.4127,-3.4129,-3.4142,-3.4162,-3.4167,-3.4221,-3.4201,-3.4234,-3.4291,-3.4308,-3.4324,-3.4416,-3.4399,-3.4426,-3.4477,-3.4514,-3.4525,-3.4535,-3.4569,-3.4581,-3.4434,-3.4434,-3.4434,0,-3.4059,-3.4119,-3.4112,-3.4158,-3.4178,-3.4155,-3.4206,-3.4222,-3.4256,-3.427,-3.4247,-3.432,-3.4333,-3.4401,-3.4423,-3.4437,-3.445,-3.4425,-3.4524,-3.4534,-3.4543,-3.4575,-3.4587,-3.4437,-3.4437,-3.4436,-3.4436,0,-3.4168,-3.4209,-3.4247,-3.4282,-3.4306,-3.4354,-3.4354,-3.4379,-3.4371,-3.4375,-3.4431,-3.4445,-3.448,-3.4495,-3.4487,-3.4561,-3.4549,-3.4526,-3.4486,-3.4559,-3.4589,-3.4601,-3.4442,-3.4441,-3.444,-3.4439,0,0,-3.428,-3.4312,-3.4326,-3.4342,-3.4369,-3.44,-3.4446,-3.4481,-3.4503,-3.4527,-3.4565,-3.4615,-3.4594,-3.4613,-3.4606,-3.4638,-3.4711,-3.4611,-3.4611,-3.463,-3.4796,-3.4814,-3.4829,-3.4699,-3.4702,-3.4703,-3.4794,0,-3.4368,-3.4451,-3.4447,-3.4524,-3.4562,-3.4541,-3.4581,-3.4601,-3.4606,-3.4638,-3.4642,-3.4679,-3.4648,-3.4659,-3.469,-3.4696,-3.4745,-3.4689,-3.4735,-3.4737,-3.4732,-3.4844,-3.4864,-3.4949,-3.4806,-3.4808,-3.4809,0,-3.4481,-3.4511,-3.4593,-3.4614,-3.463,-3.4667,-3.4699,-3.473,-3.4752,-3.4753,-3.4774,-3.4762,-3.4808,-3.4767,-3.483,-3.4792,-3.481,-3.4816,-3.4819,-3.4824,-3.4779,-3.4853,-3.4976,-3.4989,-3.4827,-3.4826,-3.4825,0,-3.4557,-3.4617,-3.4674,-3.4688,-3.4714,-3.4741,-3.4752,-3.4772,-3.4794,-3.4821,-3.4835,-3.4867,-3.4884,-3.4909,-3.4905,-3.4875,-3.497,-3.4928,-3.4972,-3.4972,-3.4994,-3.4993,-3.5122,-3.5004,-3.5003,-3.5003,-3.5003,0,-3.4656,-3.4707,-3.4709,-3.4744,-3.48,-3.4794,-3.485,-3.4859,-3.4876,-3.4912,-3.4894,-3.4928,-3.492,-3.4954,-3.4951,-3.5004,-3.5011,-3.5014,-3.5013,-3.5016,-3.5016,-3.5029,-3.5024,-3.5007,-3.5006,-3.5005,-3.5005,0,-3.4751,-3.4754,-3.4815,-3.4835,-3.4841,-3.4882,-3.4899,-3.4932,-3.4935,-3.498,-3.4991,-3.4995,-3.5034,-3.5032,-3.5075,-3.5073,-3.5139,-3.513,-3.5133,-3.5131,-3.5176,-3.5172,-3.5319,-3.5339,-3.5206,-3.5207,-3.5208,0,-3.4814,-3.4854,-3.4879,-3.4902,-3.4916,-3.4954,-3.4977,-3.4972,-3.4996,-3.5024,-3.5053,-3.509,-3.512,-3.5181,-3.5188,-3.5221,-3.5213,-3.5262,-3.5218,-3.5221,-3.5216,-3.5214,-3.5218,-3.5272,-3.5273,-3.5274,-3.5275,0,-3.4928,-3.4928,-3.4962,-3.4997,-3.5025,-3.5052,-3.5076,-3.5096,-3.5094,-3.5121,-3.5161,-3.5184,-3.5229,-3.5266,-3.5297,-3.5307,-3.5291,-3.5289,-3.5301,-3.5306,-3.5307,-3.5308,-3.5158,-3.5286,-3.5285,-3.5284,-3.5284,-3.5283,-3.501,-3.5044,-3.5068,-3.5106,-3.5125,-3.5148,-3.5181,-3.5189,-3.5223,-3.526,-3.5254,-3.5299,-3.5319,-3.536,-3.5374,-3.5408,-3.539,-3.5407,-3.5412,-3.5417,-3.5423,-3.53,-3.5413,-3.5413,-3.5412,-3.5412,-3.5412,0,-3.5123,-3.5138,-3.5173,-3.521,-3.524,-3.5223,-3.525,-3.5276,-3.5316,-3.5337,-3.5367,-3.5413,-3.5449,-3.5458,-3.5492,-3.5518,-3.5511,-3.5527,-3.5526,-3.5529,-3.5436,-3.5423,-3.5532,-3.5532,-3.5532,-3.5532,-3.5532,-3.5532,-3.5186,-3.5244,-3.5247,-3.5313,-3.5326,-3.5372,-3.5388,-3.541,-3.5427,-3.548,-3.551,-3.5517,-3.5533,-3.5568,-3.56,-3.5602,-3.5616,-3.5635,-3.5634,-3.5547,-3.5535,-3.5524,-3.5511,-3.5638,-3.5638,-3.5724,-3.5725,-3.5726]}]]